User: anonymous   Login
Location: Unspecified
(0.0000°N, 0.0000°E)
Time: 21:42:58
(UTC+00:00)
Language:

GONETS M 09 (M19) - Orbit

View from above orbital plane
View from above orbital plane
View from above satellite
View from above satellite

Ground track
Ground track

The orbit data is extracted from the following two-line orbital elements,

1 40062U 14036B   17117.69470610 +.00000010 +00000-0 +00000-0 0  9997
2 40062 082.5127 220.4648 0021371 230.6901 129.2287 12.42884690127847
Epoch (UTC): 27 April 2017 16:40:22
Eccentricity: 0.0021371
inclination: 82.5127°
perigee height: 1477 km
apogee height: 1511 km
right ascension of ascending node: 220.4648°
argument of perigee: 230.6901°
revolutions per day: 12.42884690
mean anomaly at epoch: 129.2287°
orbit number at epoch: 12784

The dashed part of the orbit path shows where the satellite is in the earth's shadow,  

DLR